When you browse on this site, cookies collect data to enhance your experience and personalize the content and advertising you see.
Visit our Privacy Policy to learn more. By continuing to use the site, you agree to this use of cookies and data.
  • In United Kingdom
  • List of Countries
  • For 7 days
  • Water Temperature
  • Satellite Maps
  • Weather Map
  • Weather Widgets
  • user-avatar
    Login

    Hourly Weather Córdoba

    Today, 19 December, Wednesday

    Time Temperature Precipitation Wind Pressure Humidity
    00:00 +20°C° 0 mm 1 mps 724 mmHg 91%
    01:00 +20°C° 0 mm 1 mps 724 mmHg 91%
    02:00 +20°C° 0 mm 1 mps 724 mmHg 92%
    03:00 +19°C° 0 mm 1 mps 723 mmHg 92%
    04:00 +19°C° 0 mm 1 mps 723 mmHg 92%
    05:00 +19°C° 0 mm 1 mps 723 mmHg 92%
    06:00 +21°C° 0.2 mm 1 mps 723 mmHg 86%
    07:00 +21°C° 0.2 mm 2 mps 723 mmHg 80%
    08:00 +24°C° 0.2 mm 2 mps 723 mmHg 73%
    09:00 +25°C° 0 mm 2 mps 723 mmHg 68%
    10:00 +27°C° 0 mm 3 mps 723 mmHg 62%
    11:00 +28°C° 0 mm 3 mps 723 mmHg 57%
    12:00 +29°C° 0.1 mm 3 mps 722 mmHg 55%
    13:00 +30°C° 0.1 mm 4 mps 721 mmHg 53%
    14:00 +32°C° 0.1 mm 4 mps 721 mmHg 51%
    15:00 +32°C° 0.1 mm 4 mps 720 mmHg 53%
    16:00 +30°C° 0.1 mm 4 mps 720 mmHg 54%
    17:00 +30°C° 0.1 mm 4 mps 719 mmHg 56%
    18:00 +28°C° 0.1 mm 3 mps 719 mmHg 64%
    19:00 +26°C° 0.1 mm 3 mps 719 mmHg 73%
    20:00 +24°C° 0.1 mm 2 mps 719 mmHg 82%
    21:00 +24°C° 0.1 mm 2 mps 719 mmHg 84%
    22:00 +23°C° 0.1 mm 2 mps 720 mmHg 86%
    23:00 +21°C° 0.1 mm 2 mps 720 mmHg 89%

    Tomorrow, 20 December, Thursday

    Time Temperature Precipitation Wind Pressure Humidity
    00:00 +21°C° 0 mm 2 mps 719 mmHg 90%
    01:00 +21°C° 0 mm 2 mps 719 mmHg 90%
    02:00 +21°C° 0 mm 2 mps 719 mmHg 91%
    03:00 +21°C° 0.4 mm 2 mps 719 mmHg 91%
    04:00 +20°C° 0.4 mm 2 mps 719 mmHg 92%
    05:00 +20°C° 0.4 mm 2 mps 719 mmHg 92%
    06:00 +21°C° 0 mm 2 mps 719 mmHg 85%
    07:00 +24°C° 0 mm 3 mps 720 mmHg 78%
    08:00 +25°C° 0 mm 3 mps 720 mmHg 71%
    09:00 +27°C° 0 mm 3 mps 720 mmHg 65%
    10:00 +29°C° 0 mm 2 mps 720 mmHg 58%
    11:00 +31°C° 0 mm 1 mps 720 mmHg 51%
    12:00 +31°C° 0.2 mm 2 mps 719 mmHg 48%
    13:00 +32°C° 0.2 mm 2 mps 719 mmHg 46%
    14:00 +34°C° 0.2 mm 2 mps 718 mmHg 44%
    15:00 +31°C° 1.6 mm 3 mps 718 mmHg 51%
    16:00 +30°C° 1.6 mm 3 mps 718 mmHg 57%
    17:00 +28°C° 1.6 mm 4 mps 718 mmHg 64%
    18:00 +26°C° 1.6 mm 4 mps 719 mmHg 72%
    19:00 +23°C° 1.6 mm 4 mps 719 mmHg 79%
    20:00 +22°C° 1.6 mm 4 mps 720 mmHg 86%
    21:00 +21°C° 0 mm 4 mps 720 mmHg 86%
    22:00 +20°C° 0 mm 4 mps 721 mmHg 86%
    23:00 +20°C° 0 mm 3 mps 721 mmHg 85%

    Day after tomorrow, 21 December, Friday

    Time Temperature Precipitation Wind Pressure Humidity
    00:00 +19°C° 0 mm 3 mps 721 mmHg 84%
    01:00 +19°C° 0 mm 3 mps 721 mmHg 82%
    02:00 +18°C° 0 mm 3 mps 721 mmHg 81%
    03:00 +18°C° 0 mm 3 mps 721 mmHg 77%
    04:00 +18°C° 0 mm 3 mps 721 mmHg 74%
    05:00 +18°C° 0 mm 3 mps 721 mmHg 70%
    06:00 +20°C° 0 mm 4 mps 721 mmHg 61%
    07:00 +22°C° 0 mm 5 mps 722 mmHg 51%
    08:00 +24°C° 0 mm 6 mps 722 mmHg 42%
    09:00 +27°C° 0 mm 5 mps 722 mmHg 37%
    10:00 +28°C° 0 mm 5 mps 722 mmHg 33%
    11:00 +30°C° 0 mm 5 mps 723 mmHg 29%
    12:00 +30°C° 0 mm 4 mps 722 mmHg 29%
    13:00 +32°C° 0 mm 4 mps 721 mmHg 28%
    14:00 +33°C° 0 mm 4 mps 721 mmHg 28%
    15:00 +33°C° 0 mm 4 mps 720 mmHg 30%
    16:00 +32°C° 0 mm 4 mps 720 mmHg 31%
    17:00 +32°C° 0 mm 4 mps 719 mmHg 33%
    18:00 +29°C° 0 mm 3 mps 720 mmHg 40%
    19:00 +26°C° 0 mm 2 mps 720 mmHg 47%
    20:00 +24°C° 0 mm 1 mps 720 mmHg 54%
    21:00 +24°C° 0 mm 1 mps 721 mmHg 55%
    22:00 +23°C° 0 mm 1 mps 721 mmHg 56%
    23:00 +23°C° 0 mm 2 mps 722 mmHg 57%

    22 December, Saturday

    Time Temperature Precipitation Wind Pressure Humidity
    00:00 +22°C° 0 mm 1 mps 721 mmHg 58%
    01:00 +22°C° 0 mm 1 mps 721 mmHg 58%
    02:00 +22°C° 0 mm 1 mps 721 mmHg 58%
    03:00 +21°C° 0 mm 1 mps 721 mmHg 59%
    04:00 +21°C° 0 mm 1 mps 721 mmHg 59%
    05:00 +21°C° 0 mm 1 mps 721 mmHg 59%
    06:00 +23°C° 0 mm 1 mps 722 mmHg 54%
    07:00 +26°C° 0 mm 1 mps 722 mmHg 48%
    08:00 +28°C° 0 mm 1 mps 723 mmHg 43%
    09:00 +30°C° 0 mm 2 mps 723 mmHg 39%
    10:00 +31°C° 0 mm 2 mps 723 mmHg 35%
    11:00 +34°C° 0 mm 3 mps 723 mmHg 32%
    12:00 +34°C° 0 mm 3 mps 722 mmHg 31%
    13:00 +35°C° 0 mm 3 mps 722 mmHg 30%
    14:00 +35°C° 0 mm 4 mps 721 mmHg 30%
    15:00 +35°C° 0 mm 4 mps 721 mmHg 32%
    16:00 +34°C° 0 mm 4 mps 721 mmHg 34%
    17:00 +33°C° 0 mm 4 mps 720 mmHg 37%
    18:00 +30°C° 0 mm 4 mps 721 mmHg 43%
    19:00 +28°C° 0 mm 3 mps 721 mmHg 50%
    20:00 +26°C° 0 mm 3 mps 721 mmHg 57%
    21:00 +25°C° 0 mm 2 mps 722 mmHg 60%
    22:00 +25°C° 0 mm 2 mps 723 mmHg 63%
    23:00 +24°C° 0 mm 2 mps 723 mmHg 65%

    23 December, Sunday

    Time Temperature Precipitation Wind Pressure Humidity
    00:00 +24°C° 0 mm 2 mps 723 mmHg 66%
    01:00 +23°C° 0 mm 2 mps 723 mmHg 67%
    02:00 +23°C° 0 mm 2 mps 723 mmHg 68%
    03:00 +23°C° 0 mm 2 mps 723 mmHg 69%
    04:00 +21°C° 0 mm 2 mps 723 mmHg 70%
    05:00 +21°C° 0 mm 2 mps 723 mmHg 71%
    06:00 +24°C° 0 mm 2 mps 724 mmHg 64%
    07:00 +27°C° 0 mm 2 mps 724 mmHg 57%
    08:00 +29°C° 0 mm 2 mps 725 mmHg 50%
    09:00 +30°C° 0 mm 3 mps 725 mmHg 45%
    10:00 +33°C° 0 mm 3 mps 725 mmHg 39%
    11:00 +34°C° 0 mm 4 mps 725 mmHg 33%
    12:00 +35°C° 0 mm 4 mps 724 mmHg 32%
    13:00 +36°C° 0 mm 4 mps 724 mmHg 30%
    14:00 +36°C° 0 mm 5 mps 723 mmHg 28%
    15:00 +35°C° 0 mm 5 mps 723 mmHg 31%
    16:00 +35°C° 0 mm 5 mps 723 mmHg 33%
    17:00 +34°C° 0 mm 5 mps 722 mmHg 35%
    18:00 +32°C° 0 mm 4 mps 722 mmHg 43%
    19:00 +28°C° 0 mm 3 mps 723 mmHg 51%
    20:00 +26°C° 0 mm 3 mps 723 mmHg 58%
    21:00 +25°C° 0 mm 2 mps 723 mmHg 60%
    22:00 +24°C° 0 mm 2 mps 723 mmHg 62%
    23:00 +23°C° 0 mm 2 mps 724 mmHg 64%

    24 December, Monday

    Time Temperature Precipitation Wind Pressure Humidity
    00:00 +23°C° 0 mm 2 mps 723 mmHg 65%
    01:00 +23°C° 0 mm 2 mps 723 mmHg 67%
    02:00 +21°C° 0 mm 2 mps 723 mmHg 68%
    03:00 +21°C° 0 mm 2 mps 723 mmHg 70%
    04:00 +20°C° 0 mm 2 mps 723 mmHg 71%
    05:00 +20°C° 0 mm 2 mps 723 mmHg 72%
    06:00 +23°C° 0 mm 2 mps 723 mmHg 65%
    07:00 +25°C° 0 mm 2 mps 723 mmHg 57%
    08:00 +27°C° 0 mm 3 mps 724 mmHg 50%
    09:00 +29°C° 0 mm 3 mps 723 mmHg 44%
    10:00 +32°C° 0 mm 4 mps 723 mmHg 37%
    11:00 +33°C° 0 mm 4 mps 723 mmHg 31%
    12:00 +34°C° 0 mm 5 mps 722 mmHg 30%
    13:00 +35°C° 0 mm 5 mps 722 mmHg 29%
    14:00 +35°C° 0 mm 6 mps 721 mmHg 27%
    15:00 +34°C° 0 mm 6 mps 721 mmHg 30%
    16:00 +34°C° 0 mm 6 mps 720 mmHg 32%
    17:00 +33°C° 0 mm 6 mps 719 mmHg 35%
    18:00 +29°C° 0 mm 5 mps 719 mmHg 42%
    19:00 +27°C° 0 mm 4 mps 719 mmHg 50%
    20:00 +24°C° 0 mm 3 mps 720 mmHg 58%
    21:00 +24°C° 0 mm 3 mps 720 mmHg 62%
    22:00 +23°C° 0 mm 2 mps 720 mmHg 66%
    23:00 +21°C° 0 mm 2 mps 720 mmHg 70%
    Show more